Regional Weather Roundup
Issued by NWS Bismarck, ND

Home | Current Version | Previous Version | Text Only | Print | Product List | Glossary On
Versions: 1 2 3 4 5 6 7 8 9 10 11 12 13 14 15 16 17 18 19 20 21 22 23 24 25 26 27 28 29 30 31 32 33 34 35 36 37 38 39 40 41 42 43 44 45 46 47 48 49 50
000
ASUS43 KBIS 120710
RWRBIS

NWR BROADCAST TEXT
NATIONAL WEATHER SERVICE BISMARCK ND
100 AM CST FRI FEB 12 2016

NOTE: "FAIR" INDICATES FEW OR NO CLOUDS BELOW 12,000 FEET WITH NO
SIGNIFICANT WEATHER AND/OR OBSTRUCTIONS TO VISIBILITY.


CITY           SKY/WX    TMP DP  RH WIND       PRES   REMARKS
WILLISTON      CLOUDY    19  14  81 N10       30.36R WCI   7
MINOT          LGT SNOW  14   5  67 N10       30.36R WCI   1
MINOT AFB      NOT AVBL
BISMARCK       CLOUDY    20  14  77 NW6       30.33R WCI  12
DICKINSON      CLOUDY    20  17  88 N7        30.27R WCI  11
GARRISON         N/A     15  12  88 N9        30.32R WCI   3
HETTINGER ARPT CLOUDY    24  20  84 N8        30.27R FOG     WCI  15
JAMESTOWN      FLURRIES  11   6  81 NW9       30.30R WCI  -2
BEACH          CLOUDY    21  21 100 N8        30.32R WCI  12
CARRINGTON     CLOUDY    10  10 100 N7        30.33R WCI   0
HAZEN          FLURRIES  14  10  85 NW5       30.35R WCI   6
LINTON         CLOUDY    18  16  93 NW7       30.33R WCI   8
MANDAN         CLOUDY    16  14  93 NW5       30.32R WCI   9
OAKES          CLOUDY     9   7  92 NW8       30.30S WCI  -4
RUGBY          FAIR       1   0  92 N8        30.35R WCI -12
STANLEY        FLURRIES  14  12  92 N9G15     30.35R WCI   2
TIOGA          FLURRIES  14  14 100 NE10      30.38R WCI   1
WATFORD CITY   CLOUDY    19  16  86 N6        30.35R WCI  11
$$

CITY           SKY/WX    TMP DP  RH WIND       PRES   REMARKS
GRAND FORKS    CLEAR      7  -2  66 N13       30.34R WCI  -9
GRAND FORKS AF CLEAR      6  -3  68 N12       30.35R WCI -10
DEVILS LAKE    CLOUDY    -1  -4  87 NW10      30.33R WCI -17
FARGO          CLOUDY    11   4  73 N8        30.32R WCI  -1
CAVALIER       FAIR       5  -4  66 N15G25    30.36R WCI -13
GRAFTON        FAIR       5  -2  72 N14       30.37R WCI -12
GWINNER        PTSUNNY   12   9  85 NW9       30.31R WCI   0
LANGDON        FAIR      -4  -9  77 N14       30.30R WCI -24
ROLLA          FAIR       0  -2  92 NW16      30.32R WCI -21
WALHALLA       FAIR       5  -4  66 N17       30.37R WCI -14
$$

CITY           SKY/WX    TMP DP  RH WIND       PRES   REMARKS
ABERDEEN       CLOUDY    12   8  84 NW6       30.32R WCI   3
MOBRIDGE       CLOUDY    21  16  81 N6        30.28R WCI  13
BUFFALO          N/A     29  24  82 N7        30.19R
RAPID CITY     CLOUDY    31  27  85 NE7       30.24S
GLASGOW        CLOUDY    28  23  81 E7        30.32R
SIDNEY         CLOUDY    23  16  74 NE5       30.36R WCI  17
WOLF POINT     CLOUDY    25  18  74 E9        30.37R WCI  15
GLENDIVE       CLOUDY    23  19  86 NE8       30.33R WCI  14
MILES CITY     CLOUDY    31  26  82 N3        30.30R
BAKER          CLOUDY    27  22  81 NW5       30.27R
$$

CITY           SKY/WX    TMP DP  RH WIND       PRES   REMARKS
BILLINGS       MOCLDY    37  28  70 CALM      30.26S
GREAT FALLS    CLOUDY    32  27  81 E5        30.25S
REGINA         CLEAR      3  -2  78 N5        30.44R WCI  -6
ESTEVAN        MOCLDY     9   1  72 N12G17    30.39R WCI  -6
$$




USA.gov is the U.S. government's official web portal to all federal, state and local government web resources and services.